Location: Sevilla
(37.3933°N, 5.9839°W)
Time: 04:25:49
(UTC+02:00)

Transit 2A - Pass Details

Date: 02 July 2024
Orbit: 591 x 960 km, 66.7° (Epoch: 15 July)

Event Time Altitude Azimuth Distance (km) Brightness Sun altitude
Rises 14:48:01 0° 208° (SSW) 2,997 9.3 75.0°
Reaches altitude 10° 14:50:13 10° 208° (SSW) 2,136 8.7 74.8°
Maximum altitude 14:55:05 86° 296° (WNW) 752 7.9 74.5°
Drops below altitude 10° 15:00:34 10° 27° (NNE) 2,396 8.5 74.0°
Sets 15:03:09 0° 28° (NNE) 3,392 9.2 73.7°
